Content
SEND FEEDBACK

Daily
Averages
Monthly
Summary
United States of America

STATEN ISLAND, NEW YORK


Home > North America > United States > New York
Elevation: 46 meters     Latitude: 40 35N     Longitude: 074 09W

WEATHER
 
SELECT A DAY
Number of Records: 189,550;   Date Range: 1/1/95 - 7/23/14
 
SHARE

PRINT THIS DATA

[ ← Previous Day ]
WEATHER ALMANAC - 3 MAY, 2013
[ Next Day → ]
[ °F ]   °C
Weather ElementAverageHighLow
Temperature13.3 °C16.1 °C (1:51 pm)10.6 °C (9:51 pm)
Dewpoint4.2 °C7.2 °C (2:51 am)1.7 °C (5:51 am)
Humidity55.4 %77 % (9:51 pm)39 % (10:51 am)
Barometer1030.1 hPa1031.5 hPa (8:51 am)1028.8 hPa (4:51 pm)
Wind Speed14.2 km/h25.9 km/h (5:51 am)
Wind Gust33.3 km/h (5:51 am)
Weather ElementAverage
Visibility16.1 km
Wind DirectionE (90.4 °)

Weather ElementTotal
Precipitation---
Heating Degree Days5 (Base 18.3)
Growing Degree Days3.4 (Base 10)
Averaged from 23 records on 3 May, 2013
WEATHER CONDITIONS BREAKOUT
WIND DIRECTION BREAKOUT
WEATHER BY HOUR - 3 MAY, 2013
[ °F ]   °C
Local TimeTemperatureDewpointHumidityBarometerVisibilityWind DirectionWind SpeedGust SpeedPrecipitationEventsConditions
1:51 AM13.9 °C6.1 °C59 %1029.1 hPa16.1 kmEast (80°)7.4 km/hPartly Cloudy
2:51 AM12.8 °C7.2 °C69 %1029.8 hPa16.1 kmEast (90°)16.7 km/hPartly Cloudy
3:51 AM12.8 °C4.4 °C57 %1030.1 hPa16.1 kmENE (70°)13 km/hMostly Cloudy
4:51 AM12.8 °C3.9 °C55 %1030.5 hPa16.1 kmENE (70°)11.1 km/hMostly Cloudy
5:51 AM12.2 °C1.7 °C49 %1030.8 hPa16.1 kmENE (70°)25.9 km/h33.3 km/hMostly Cloudy
6:51 AM12.2 °C1.7 °C49 %1031.2 hPa16.1 kmNE (50°)22.2 km/hMostly Cloudy
7:51 AM12.8 °C1.7 °C47 %1031.2 hPa16.1 kmENE (60°)18.5 km/hScattered Clouds
8:51 AM13.9 °C2.2 °C45 %1031.5 hPa16.1 kmNE (50°)16.7 km/hPartly Cloudy
9:51 AM13.9 °C1.7 °C44 %1031.5 hPa16.1 kmENE (70°)18.5 km/hClear
10:51 AM15.6 °C1.7 °C39 %1031.5 hPa16.1 kmENE (60°)18.5 km/hScattered Clouds
11:51 AM15.6 °C2.2 °C41 %1031.2 hPa16.1 kmNE (50°)14.8 km/hScattered Clouds
12:51 PM15.6 °C1.7 °C39 %1030.5 hPa16.1 kmNNE (30°)9.3 km/hScattered Clouds
1:51 PM16.1 °C4.4 °C46 %1030.1 hPa16.1 kmSE (130°)16.7 km/hScattered Clouds
2:51 PM16.1 °C3.9 °C44 %1029.5 hPa16.1 kmVariable9.3 km/hScattered Clouds
3:51 PM15.6 °C3.9 °C46 %1029.1 hPa16.1 kmSSE (150°)16.7 km/h27.8 km/hPartly Cloudy
4:51 PM14.4 °C3.9 °C49 %1028.8 hPa16.1 kmSE (140°)18.5 km/hPartly Cloudy
5:51 PM13.3 °C5.6 °C60 %1028.8 hPa16.1 kmSE (140°)18.5 km/hPartly Cloudy
6:51 PM12.2 °C5.6 °C64 %1028.8 hPa16.1 kmSSE (150°)18.5 km/hScattered Clouds
7:51 PM11.1 °C6.1 °C71 %1029.1 hPa16.1 kmSouth (170°)11.1 km/hScattered Clouds
8:51 PM11.1 °C6.1 °C71 %1029.5 hPa16.1 kmSE (130°)9.3 km/hScattered Clouds
9:51 PM10.6 °C6.7 °C77 %1029.5 hPa16.1 kmSouth (170°)7.4 km/hScattered Clouds
10:51 PM10.6 °C6.7 °C77 %1029.1 hPa16.1 kmSSE (150°)7.4 km/hScattered Clouds
11:51 PM10.6 °C6.7 °C77 %1028.8 hPa16.1 kmCalmScattered Clouds
Hourly data recorded from KEWR, located 0 kilometers away from Staten Island, New York







STORIES FROM OUR PARTNERS